Athens, GA

10:34 PM EST on February 12, 2016 (GMT -0500)
Athens / Epps

Weather History for KAHN - January, 2013

Change the Weather History Date:

Thursday, January 3, 2013

  Actual Average Record
Temperature  
Mean Temperature 42 °F 43 °F  
Max Temperature 49 °F 53 °F 75 °F (1952)
Min Temperature 35 °F 33 °F 10 °F (1887)
Degree Days  
Heating Degree Days 23 22  
Month to date heating degree days 55 66  
Since 1 July heating degree days 1040 1156  
Moisture  
Dew Point 36 °F    
Average Humidity 77    
Maximum Humidity 93    
Minimum Humidity 60    
Precipitation  
Precipitation T in 0.12 in 3.07 in (1936)
Month to date precipitation 1.06 0.35  
Year to date precipitation 1.06 0.35  
Snow  
Snow 0.00 in 0.00 in 2.00 in (2002)
Month to date snowfall 0.0 0.1  
Since 1 July snowfall 0.0 0.2  
Snow Depth -    
Sea Level Pressure  
Sea Level Pressure 30.19 in    
Wind  
Wind Speed 4 mph (WNW)    
Max Wind Speed 9 mph    
Max Gust Speed 12 mph    
Visibility 8 miles    
Events Rain    
T = Trace of Precipitation, MM = Missing Value Source: NWS Daily Summary

Daily Weather History Graph

Daily Weather History Graph

Search for Another Location

Airport or City:

Trip Planner

Search our weather history database for the weather conditions in past years. The results will help you decide how hot, cold, wet, or windy it might be!

Date:

Astronomy

Jan. 03, 2013 Rise Set
Actual Time 7:39 AM EST 5:37 PM EST
Civil Twilight 7:11 AM EST 6:04 PM EST
Nautical Twilight 6:40 AM EST 6:35 PM EST
Astronomical Twilight 6:10 AM EST 7:06 PM EST
Moon 11:51 PM EST (1/3) 11:08 AM EST (1/3)
Length of Visible Light 10h 53m
Length of Day
9h 58m
Waning Gibbous, 65% of the Moon is Illuminated
Jan 3
Waning Gibbous
Jan 4
Last Quarter
Jan 11
New
Jan 18
First Quarter
Jan 26
Full

Hourly Weather History & Observations

Time (EST) Temp. Windchill Dew Point Humidity Pressure Visibility Wind Dir Wind Speed Gust Speed Precip Events Conditions
12:51 AM 42.1 °F 39.2 °F 37.9 °F 85% 30.12 in 9.0 mi West 4.6 mph - 0.00 in Rain Light Rain
1:51 AM 41.0 °F 38.0 °F 37.9 °F 89% 30.12 in 8.0 mi West 4.6 mph - 0.00 in   Overcast
2:51 AM 41.0 °F - 39.0 °F 93% 30.13 in 8.0 mi Calm Calm - 0.00 in   Overcast
3:51 AM 41.0 °F 39.0 °F 39.0 °F 93% 30.13 in 8.0 mi Variable 3.5 mph - N/A   Overcast
4:51 AM 41.0 °F 39.0 °F 37.9 °F 89% 30.13 in 8.0 mi WSW 3.5 mph - N/A   Overcast
5:51 AM 41.0 °F 39.0 °F 37.9 °F 89% 30.14 in 8.0 mi Variable 3.5 mph - N/A   Overcast
6:51 AM 41.0 °F 39.0 °F 37.0 °F 86% 30.16 in 8.0 mi WNW 3.5 mph - N/A   Overcast
7:51 AM 41.0 °F 38.0 °F 37.0 °F 86% 30.15 in 8.0 mi WNW 4.6 mph - N/A   Mostly Cloudy
8:51 AM 41.0 °F 37.1 °F 36.0 °F 82% 30.17 in 7.0 mi WNW 5.8 mph - N/A   Overcast
9:51 AM 43.0 °F 41.3 °F 36.0 °F 76% 30.18 in 7.0 mi WSW 3.5 mph - N/A   Mostly Cloudy
10:40 AM 42.8 °F 38.6 °F 35.6 °F 76% 30.20 in 7.0 mi NW 6.9 mph - N/A   Overcast
10:51 AM 44.1 °F 40.8 °F 36.0 °F 73% 30.19 in 8.0 mi West 5.8 mph - N/A   Overcast
10:59 AM 44.6 °F 42.2 °F 35.6 °F 71% 30.18 in 8.0 mi WNW 4.6 mph - N/A   Overcast
11:51 AM 45.0 °F 42.6 °F 37.0 °F 74% 30.20 in 8.0 mi Variable 4.6 mph - N/A   Partly Cloudy
12:28 PM 46.4 °F 44.3 °F 35.6 °F 66% 30.17 in 8.0 mi West 4.6 mph - N/A   Mostly Cloudy
12:42 PM 46.4 °F - 37.4 °F 71% 30.16 in 8.0 mi Calm Calm - N/A   Scattered Clouds
12:51 PM 46.9 °F - 37.0 °F 68% 30.17 in 8.0 mi Calm Calm - N/A   Partly Cloudy
1:51 PM 46.9 °F - 37.0 °F 68% 30.16 in 8.0 mi Variable 4.6 mph - N/A   Mostly Cloudy
2:51 PM 46.4 °F 43.5 °F 37.4 °F 71% 30.15 in 8.0 mi West 5.8 mph - N/A   Scattered Clouds
3:51 PM 48.0 °F - 36.0 °F 63% 30.18 in 9.0 mi WNW 4.6 mph - N/A   Clear
4:51 PM 46.9 °F - 34.0 °F 61% 30.21 in 9.0 mi WNW 6.9 mph - N/A   Clear
5:51 PM 44.1 °F - 33.1 °F 65% 30.21 in 9.0 mi Calm Calm - N/A   Clear
6:51 PM 41.0 °F 39.0 °F 33.8 °F 76% 30.23 in 10.0 mi West 3.5 mph - N/A   Clear
7:51 PM 39.9 °F 35.8 °F 33.1 °F 77% 30.26 in 9.0 mi WNW 5.8 mph - N/A   Clear
8:51 PM 37.9 °F 34.4 °F 32.0 °F 79% 30.27 in 9.0 mi WNW 4.6 mph - N/A   Clear
9:51 PM 36.0 °F 31.1 °F 30.9 °F 82% 30.27 in 8.0 mi WNW 5.8 mph - N/A   Clear
10:51 PM 36.0 °F 31.1 °F 30.0 °F 79% 30.28 in 9.0 mi NW 5.8 mph - N/A   Clear
11:51 PM 35.1 °F 30.1 °F 28.9 °F 78% 30.31 in 9.0 mi NW 5.8 mph - N/A   Clear